LA5TUA Weather Reports


time (UTC)temp
C
wind
direction
speed
KPH
gust
KPH
rain 1hr
cm
rain 24hr
cm
rain mn
cm
humidity
%
barometer
mb
20260505230601 5 331 3.2 12.9 0.00 0.00 0.00 56 1012.2
20260505225529 5 355 3.2 9.7 0.00 0.00 0.00 55 1012.2
20260505224455 5 25 4.8 8.0 0.00 0.00 0.00 54 1012.2
20260505223428 6 317 4.8 9.7 0.00 0.00 0.00 53 1012.5
20260505222401 6 15 3.2 9.7 0.00 0.00 0.00 54 1012.5
20260505221333 6 10 4.8 17.7 0.00 0.00 0.00 54 1012.5
20260505220302 6 333 6.4 14.5 0.00 0.00 0.00 55 1012.5
20260505215300 6 9 4.8 14.5 0.00 0.00 0.00 51 1012.2
20260505214239 7 31 14.5 17.7 0.00 0.00 0.00 50 1012.2
20260505213216 7 328 6.4 12.9 0.00 0.00 0.00 49 1012.2
20260505212151 7 12 3.2 9.7 0.00 0.00 0.00 53 1012.2
20260505211131 7 323 3.2 14.5 0.00 0.00 0.00 50 1011.9
20260505210104 7 309 11.3 11.3 0.00 0.00 0.00 51 1011.9
20260505205002 7 349 1.6 8.0 0.00 0.00 0.00 51 1011.9
20260505203937 7 342 3.2 8.0 0.00 0.00 0.00 50 1011.5
20260505202913 8 355 0.0 16.1 0.00 0.00 0.00 48 1011.5
20260505201842 8 13 4.8 16.1 0.00 0.00 0.00 49 1011.5
20260505200810 8 338 6.4 9.7 0.00 0.00 0.00 51 1011.5
20260505195742 8 238 0.0 6.4 0.00 0.00 0.00 64 1011.2
20260505194709 8 258 0.0 6.4 0.00 0.00 0.00 65 1011.2
20260505193642 8 271 1.6 4.8 0.00 0.00 0.00 64 1011.2
20260505192609 8 246 4.8 12.9 0.00 0.00 0.00 63 1011.2
20260505191546 8 269 1.6 16.1 0.00 0.00 0.00 62 1010.8
20260505190518 8 193 3.2 12.9 0.00 0.00 0.00 61 1010.8
20260505185445 8 215 9.7 12.9 0.00 0.00 0.00 59 1010.8
20260505183356 8 209 1.6 14.5 0.00 0.00 0.00 58 1010.8
20260505182329 8 220 8.0 17.7 0.00 0.00 0.00 56 1010.5
20260505181301 9 213 14.5 14.5 0.00 0.00 0.00 52 1010.5
20260505180235 9 226 9.7 9.7 0.00 0.00 0.00 51 1010.5
20260505175208 9 215 3.2 14.5 0.00 0.00 0.00 51 1010.2
20260505173126 10 219 6.4 14.5 0.00 0.00 0.00 50 1010.2
20260505172102 10 205 9.7 16.1 0.00 0.00 0.00 50 1010.2
20260505171029 10 246 8.0 16.1 0.00 0.00 0.00 49 1010.2
20260505165951 10 205 6.4 14.5 0.00 0.00 0.00 49 1010.2
20260505164919 9 207 6.4 19.3 0.00 0.00 0.00 52 1010.2
20260505163850 8 197 12.9 16.1 0.00 0.00 0.00 63 1010.2
20260505162831 8 185 9.7 19.3 0.00 0.00 0.00 62 1010.2
20260505161758 8 161 9.7 20.9 0.00 0.00 0.00 64 1010.2
20260505160726 8 152 3.2 19.3 0.00 0.00 0.00 66 1010.5
20260505152528 9 213 17.7 27.4 0.00 0.00 0.00 62 1010.5
20260505151501 8 184 14.5 27.4 0.00 0.00 0.00 65 1010.5
20260505150434 9 130 14.5 29.0 0.00 0.00 0.00 61 1010.5
20260505140153 8 166 19.3 29.0 0.00 0.00 0.00 58 1010.5
20260505124914 8 187 9.7 24.1 0.00 0.00 0.00 48 1010.8
20260505123845 9 188 12.9 29.0 0.00 0.00 0.00 49 1010.5
20260505122816 10 223 6.4 30.6 0.00 0.00 0.00 48 1010.5
20260505120735 12 164 8.0 16.1 0.00 0.00 0.00 30 1010.2
20260505113641 12 257 8.0 9.7 0.00 0.00 0.00 35 1010.5
20260505112619 11 194 1.6 11.3 0.00 0.00 0.00 32 1010.5
20260505111552 11 282 3.2 14.5 0.00 0.00 0.00 36 1010.5
20260505110531 11 273 1.6 16.1 0.00 0.00 0.00 36 1010.5
20260505101334 9 273 12.9 12.9 0.00 0.00 0.00 40 1010.8
20260505100238 8 63 1.6 8.0 0.00 0.00 0.00 39 1010.8
20260505095229 9 195 4.8 8.0 0.00 0.00 0.00 38 1010.5
20260505094203 9 205 4.8 9.7 0.00 0.00 0.00 38 1010.8
20260505093137 9 243 3.2 8.0 0.00 0.00 0.00 41 1010.8
20260505092115 9 265 1.6 9.7 0.00 0.00 0.00 39 1010.8
20260505091010 8 292 11.3 14.5 0.00 0.00 0.00 42 1010.8
20260505085946 8 325 6.4 14.5 0.00 0.00 0.00 41 1010.8
20260505084919 8 336 3.2 19.3 0.00 0.00 0.00 41 1010.5
20260505083918 8 329 4.8 16.1 0.00 0.00 0.00 42 1010.5
20260505082851 8 311 8.0 16.1 0.00 0.00 0.00 43 1010.5
20260505081819 7 341 12.9 19.3 0.00 0.00 0.00 43 1010.5
20260505080753 7 351 6.4 19.3 0.00 0.00 0.00 45 1010.5
20260505075719 7 336 6.4 16.1 0.00 0.00 0.00 45 1010.5
20260505074651 7 360 8.0 16.1 0.00 0.00 0.00 46 1010.5
20260505073624 7 308 6.4 14.5 0.00 0.00 0.00 46 1010.5
20260505072556 6 292 11.3 17.7 0.00 0.00 0.00 46 1010.2
20260505071531 6 343 3.2 16.1 0.00 0.00 0.00 46 1010.2
20260505070502 7 304 4.8 9.7 0.00 0.00 0.00 49 1010.2
20260505065435 7 291 1.6 8.0 0.00 0.00 0.00 49 1009.8
20260505064409 6 203 1.6 8.0 0.00 0.00 0.00 49 1009.8
20260505063340 6 22 0.0 8.0 0.00 0.00 0.00 51 1009.8
20260505062310 6 335 3.2 11.3 0.00 0.00 0.00 53 1010.2
20260505061241 6 58 3.2 11.3 0.00 0.00 0.00 52 1010.2
20260505060220 5 28 3.2 9.7 0.00 0.00 0.00 53 1009.8
20260505055151 5 51 3.2 6.4 0.00 0.00 0.00 55 1010.2
20260505054124 4 9 1.6 9.7 0.00 0.00 0.00 55 1010.2
20260505053057 4 5 3.2 12.9 0.00 0.00 0.00 56 1010.2
20260505052035 4 26 3.2 8.0 0.00 0.00 0.00 57 1009.8
20260505050958 4 355 1.6 12.9 0.00 0.00 0.00 58 1009.8
20260505041741 3 69 3.2 6.4 0.00 0.00 0.00 62 1009.5
20260505035651 3 140 0.0 8.0 0.00 0.00 0.00 60 1009.1
20260505033607 3 38 1.6 3.2 0.00 0.00 0.00 59 1009.1
20260505032535 3 64 1.6 9.7 0.00 0.00 0.00 57 1009.1
20260505031509 3 37 1.6 12.9 0.00 0.00 0.00 56 1009.1
20260505030445 3 98 1.6 9.7 0.00 0.00 0.00 55 1009.1
20260505025414 3 159 3.2 8.0 0.00 0.00 0.00 56 1008.8
20260505024413 3 96 4.8 6.4 0.00 0.00 0.00 55 1008.8
20260505023346 3 92 1.6 12.9 0.00 0.00 0.00 54 1008.8
20260505022319 4 84 3.2 8.0 0.00 0.00 0.00 53 1008.8
20260505021309 4 69 6.4 17.7 0.00 0.00 0.00 53 1008.8
20260505020235 4 335 0.0 12.9 0.00 0.00 0.00 52 1008.8
20260505015200 4 27 1.6 17.7 0.00 0.00 0.00 53 1008.8
20260505014131 4 319 6.4 14.5 0.00 0.00 0.00 52 1008.5
20260505013055 4 54 3.2 17.7 0.00 0.00 0.00 51 1008.5
20260505012034 5 96 1.6 14.5 0.00 0.00 0.00 52 1008.5
20260505010010 5 97 3.2 8.0 0.00 0.00 0.00 53 1008.1
20260505005000 5 217 1.6 11.3 0.00 0.00 0.00 54 1008.1
20260505002904 5 82 4.8 27.4 0.00 0.00 0.00 55 1007.8
20260505001900 5 22 4.8 22.5 0.00 0.00 0.00 56 1007.8
20260504235811 5 335 8.0 19.3 0.00 0.00 0.00 57 1007.8
20260504234738 6 295 4.8 24.1 0.00 0.00 0.00 56 1007.8
20260504233707 6 298 14.5 22.5 0.00 0.00 0.00 56 1007.8
20260504232639 6 200 6.4 16.1 0.00 0.00 0.00 55 1007.5
20260504231622 6 61 4.8 12.9 0.00 0.00 0.00 54 1007.5